Helicity
56 139 10 -67 -101 -35 -40 -69 -65 7 22 149 132 257 370 302 215 380 328 337 145 74 -2 63 156 151 99 120 175 199 189 122 80 85 85 50 27 6 19 35 11 36 65 60
-49 -29 26 167 166 61 -132 -113 -104 44 78 184 209 251 245 268 273 276 408 376 228 86 35 49 186 214 188 238 217 213 211 164 146 126 97 36 8 -23 -18 -32 -22 28 52 60
31 73 95 143 152 146 -33 -123 -143 10 22 90 159 150 -25 70 162 103 237 364 322 242 155 115 167 253 257 246 284 273 257 227 216 193 144 43 -12 -53 -0 4 -25 8 67 83
-33 -74 -1 -14 -20 35 -76 -138 -59 16 44 -49 141 46 34 -25 -4 -0 256 301 341 319 244 220 284 279 281 269 263 284 296 279 247 235 172 140 97 44 -23 -16 19 37 71 80
83 64 -15 37 4 -21 -64 18 -25 21 87 97 114 164 167 -40 25 -56 94 259 305 295 301 318 333 422 402 364 319 291 306 301 265 231 204 175 111 61 -0 -42 19 34 65 69
54 -4 59 39 -35 -21 -4 34 76 68 100 59 16 142 201 -14 -17 28 21 146 250 271 250 320 405 402 440 427 418 411 407 323 275 252 226 224 160 84 20 -28 -14 -6 11 52
52 -21 22 51 18 -61 4 10 72 103 157 19 6 106 107 79 61 100 112 125 184 252 248 286 300 342 398 468 488 487 452 399 314 281 249 231 180 104 50 18 -4 -1 32 64
141 80 -26 -32 24 -3 -11 -2 -16 205 219 115 91 196 26 70 99 249 206 206 240 168 284 269 314 351 441 509 566 579 510 416 364 298 266 219 160 83 17 11 29 24 50 74
168 130 87 86 -15 61 -55 -40 8 -76 130 178 149 137 40 65 176 90 187 193 217 194 226 261 290 290 417 503 567 595 591 490 397 320 260 196 155 110 43 27 23 52 52 53
177 116 54 30 78 12 17 88 84 126 -52 90 132 161 131 109 69 214 164 166 232 257 189 205 230 293 275 464 543 551 564 584 489 360 264 205 154 123 58 29 52 35 20 40
140 182 108 96 120 54 62 15 92 103 82 21 60 -94 49 75 49 160 334 295 320 428 225 271 246 273 302 339 420 504 485 499 438 333 258 200 156 131 99 41 41 52 60 69
42 109 143 99 67 98 29 41 84 97 112 110 35 17 107 97 64 108 230 268 293 346 277 263 234 134 259 384 353 407 474 430 448 426 279 224 175 146 106 88 46 33 75 121
312 98 208 175 105 23 76 68 37 224 222 14 67 143 87 52 -47 90 104 234 346 121 181 231 283 162 269 278 365 417 436 438 405 404 321 221 180 158 108 99 88 90 77 132
179 114 201 134 178 167 190 80 52 51 168 141 -26 157 110 71 -58 -26 102 228 312 170 98 177 103 177 121 253 350 408 407 428 406 392 327 274 219 187 110 97 101 124 145 193
86 208 191 58 58 170 222 185 119 83 72 195 191 201 87 25 12 91 22 139 199 134 115 81 77 157 184 239 322 433 385 412 419 385 375 288 232 207 147 112 117 133 143 193
62 214 187 178 161 54 128 123 114 148 101 129 256 211 203 73 53 43 76 167 160 93 148 177 156 2 265 366 371 307 368 417 460 374 335 360 279 225 181 160 150 175 181 190
-55 174 306 216 241 135 91 82 120 100 187 125 159 270 215 178 85 45 37 75 66 64 187 150 128 143 278 371 466 313 332 386 442 508 356 334 346 297 234 205 219 216 234 278
61 223 260 299 360 285 157 27 98 132 88 115 153 174 204 175 104 155 94 77 103 122 220 116 157 194 268 304 347 281 344 397 435 459 433 366 345 322 298 246 223 245 273 284
83 186 201 340 396 376 336 231 199 175 48 88 71 34 144 141 205 157 131 88 66 155 108 143 79 140 136 149 182 298 295 353 412 409 440 441 389 336 338 307 248 251 280 298
17 64 182 250 544 386 301 307 316 172 215 184 92 65 46 166 100 148 176 113 129 85 140 142 142 227 227 255 161 223 236 340 336 358 416 506 493 400 362 320 295 273 264 293
290 208 149 120 473 476 238 155 209 331 150 120 113 82 116 124 126 191 166 201 186 165 108 126 179 143 135 118 197 217 229 207 224 251 300 434 488 494 402 365 350 359 328 309
159 269 272 200 366 374 475 367 128 150 197 108 135 177 185 181 211 209 219 243 260 275 237 151 154 151 184 272 367 260 256 203 233 261 263 322 463 497 469 438 427 442 362 293
84 203 308 123 107 106 293 390 584 379 233 212 215 212 238 290 253 238 218 239 230 189 191 161 93 104 99 143 197 271 228 278 355 389 374 385 394 430 499 575 533 482 382 379
103 176 215 77 -3 79 360 432 557 509 296 369 242 184 230 236 275 284 266 274 264 234 196 191 174 140 133 145 169 206 254 369 459 465 532 599 580 577 573 590 563 528 433 463
150 78 232 67 -59 -22 241 430 453 353 334 167 343 381 265 235 280 258 254 236 193 153 150 155 185 210 223 206 224 270 330 458 608 708 700 717 700 636 716 810 640 485 435 345
264 156 184 194 65 8 109 410 500 464 461 430 301 329 453 386 286 232 241 192 164 149 138 167 170 184 260 327 333 360 409 504 617 700 745 552 563 593 679 736 630 568 382 216
Wind_Speed
18 27 71 57 56 25 74 67 63 48 10 34 46 32 41 46 45 44 44 47 51 57 66 57 64 67 67 56 52 46 50 53 52 47 46 47 50 50 47 38 35 33 29 23
47 71 33 45 61 36 49 64 69 54 31 36 28 39 42 41 50 48 46 47 53 55 60 61 59 62 66 57 55 47 48 51 49 42 41 42 43 48 45 41 37 28 23 22
50 46 41 47 66 61 34 61 31 29 38 17 19 11 48 25 43 47 53 49 49 55 57 62 63 62 62 62 56 54 48 48 46 39 34 35 34 44 35 24 28 27 26 23
47 52 32 51 53 36 45 70 41 40 68 41 22 72 33 66 82 65 53 60 57 58 62 56 58 62 63 62 58 53 47 46 42 40 39 42 37 39 44 34 26 24 24 25
13 34 57 53 55 45 84 73 49 44 55 39 40 61 61 15 68 84 69 65 62 63 61 59 60 60 61 58 55 52 49 45 40 41 39 41 40 35 27 25 22 29 28 31
44 24 23 47 43 51 83 73 70 55 52 82 36 35 82 82 80 70 79 74 60 52 60 62 60 55 54 52 50 47 45 45 45 41 40 40 41 34 35 28 21 31 32 42
43 48 45 24 30 45 35 35 53 67 70 77 31 35 44 56 57 55 68 74 50 54 48 55 53 48 46 44 45 43 44 43 42 41 39 38 40 34 37 39 36 30 37 41
42 53 41 25 44 37 31 41 46 59 71 67 49 64 54 39 35 38 60 61 40 52 53 55 51 47 47 45 43 45 48 51 47 43 40 36 37 32 36 38 33 32 42 44
46 71 46 49 42 36 36 55 36 45 71 78 61 58 91 35 36 31 60 57 54 52 57 56 51 52 50 50 53 54 54 55 53 50 43 40 35 34 33 32 24 31 40 40
68 70 55 76 57 80 44 39 35 37 67 88 76 68 64 44 34 29 41 51 51 51 57 60 53 55 54 57 61 56 57 56 54 52 50 48 44 43 39 37 39 38 45 44
79 79 80 64 71 57 56 47 55 38 44 57 93 103 52 87 57 42 37 59 58 45 51 53 50 48 59 43 46 61 57 56 55 55 52 48 47 49 53 54 42 49 44 46
79 75 94 80 68 56 63 64 57 53 42 43 70 85 30 48 61 43 29 42 57 41 42 47 61 57 43 46 50 59 61 58 57 55 54 50 47 48 57 63 62 55 49 42
60 84 87 92 89 93 81 77 59 56 52 70 48 45 29 69 62 38 31 50 36 39 30 34 42 42 37 43 51 58 63 61 54 49 53 47 47 49 57 61 59 52 52 42
70 86 91 96 79 70 76 76 71 66 65 56 91 47 55 45 48 48 48 36 36 42 39 31 33 49 41 50 53 59 63 54 48 46 50 50 50 52 55 53 52 48 46 41
64 89 90 104 98 77 80 77 75 72 67 65 59 57 49 81 61 58 60 46 37 42 43 43 39 45 51 59 57 58 60 45 45 44 46 55 50 46 46 46 44 41 42 37
66 83 83 100 94 93 86 88 83 73 75 79 68 63 50 74 84 70 62 52 45 54 49 39 35 50 48 65 67 70 58 48 44 47 51 41 42 43 48 45 43 38 36 34
73 73 80 98 87 86 98 96 82 78 68 68 73 58 47 44 56 48 53 48 54 59 51 47 33 36 47 54 59 61 50 44 45 48 45 43 39 41 44 42 40 41 38 33
86 80 74 88 78 101 95 79 85 77 68 62 57 67 60 53 54 67 61 61 55 50 47 37 32 26 32 40 42 47 45 44 42 42 43 44 44 41 38 39 41 38 38 37
91 76 76 82 85 75 73 70 69 79 89 72 70 60 58 60 54 57 58 56 60 53 41 41 35 25 28 27 43 46 44 41 39 41 42 46 47 44 39 37 39 37 36 37
95 83 78 75 76 95 75 51 45 41 70 54 62 66 54 41 61 56 51 56 51 46 48 48 43 38 44 40 42 40 44 39 41 42 41 40 42 44 42 39 35 35 35 32
73 77 82 83 79 73 54 61 45 71 67 50 50 51 46 46 42 32 31 37 51 58 56 46 46 36 36 26 40 40 42 42 43 40 36 37 40 42 45 42 39 35 33 32
88 79 86 76 69 78 59 57 72 47 41 38 35 35 30 24 20 21 22 22 26 33 44 53 53 55 55 48 50 46 48 48 44 48 44 40 42 43 42 42 41 39 38 37
93 87 85 70 53 44 46 48 47 42 41 39 31 29 23 21 18 14 12 14 20 23 32 38 45 53 54 47 48 54 60 53 52 52 50 49 50 48 42 40 40 43 42 43
65 78 87 67 52 46 43 46 37 31 28 30 30 24 22 18 16 14 14 18 23 27 30 38 44 47 49 53 56 59 61 58 56 55 55 50 53 55 48 42 40 43 46 49
56 60 81 74 55 45 40 42 40 23 20 17 21 23 20 16 18 16 18 21 24 28 34 41 47 53 57 54 53 54 53 49 50 48 47 45 46 46 46 47 44 40 41 40
56 53 77 87 46 43 43 38 23 14 17 21 17 15 19 18 18 18 19 25 30 34 40 46 49 51 55 54 52 46 38 35 34 35 35 35 35 43 40 43 36 28 22 15
Wind_Direction
197 225 194 188 188 249 227 219 214 264 312 165 170 155 155 161 161 159 160 157 160 165 173 164 168 170 171 167 165 162 165 169 169 167 166 172 182 186 185 168 155 157 153 137
181 201 205 255 251 253 194 202 211 260 301 277 178 170 164 162 173 172 165 164 167 166 169 173 169 171 175 171 172 167 169 170 171 167 166 167 170 180 179 175 167 150 139 141
188 239 248 253 248 251 227 196 221 278 289 314 271 268 179 184 213 178 179 173 171 170 169 175 176 176 177 178 175 174 172 173 173 169 163 162 161 177 162 149 161 162 156 141
196 195 175 192 196 206 212 198 260 273 253 194 257 238 205 204 217 198 182 181 180 178 178 174 175 179 180 182 180 178 175 175 174 171 170 172 169 172 179 168 159 153 145 141
218 182 193 191 193 196 215 248 259 267 271 272 268 263 274 232 202 210 191 188 187 184 181 179 179 179 181 181 182 182 181 179 177 176 175 175 175 171 160 161 152 160 155 153
202 240 189 196 191 192 232 252 256 264 268 244 222 212 249 215 228 204 198 193 189 187 187 187 185 182 181 180 182 182 181 183 181 179 179 179 179 174 173 166 152 159 154 163
255 210 262 258 198 191 196 240 256 257 258 249 244 236 221 198 197 195 191 195 193 190 192 189 187 186 185 184 184 186 186 187 186 185 184 182 181 178 176 175 170 155 156 155
253 264 211 224 204 198 226 204 203 255 258 267 268 261 207 210 199 198 194 195 205 194 191 191 191 191 190 189 187 186 186 186 184 185 187 185 184 182 177 176 171 160 161 158
263 262 273 249 252 215 226 202 221 219 264 267 270 272 245 263 264 212 199 195 196 197 191 193 197 195 189 187 186 185 184 184 183 183 185 187 187 185 181 174 167 160 158 157
260 269 265 256 258 251 230 256 234 245 210 260 265 267 267 259 256 238 210 204 203 198 194 195 197 195 193 189 187 186 186 185 184 184 183 184 185 185 182 178 175 169 169 169
253 258 259 263 251 244 245 231 254 250 229 217 259 239 262 254 270 274 234 201 197 202 195 191 194 201 196 197 190 188 188 187 186 186 184 183 184 183 184 183 180 179 177 177
254 256 255 255 256 254 243 246 243 237 240 258 219 225 288 260 272 272 251 208 197 201 192 193 194 189 190 190 192 190 189 190 188 187 186 186 183 182 185 188 186 183 182 180
266 250 253 255 252 248 250 249 234 247 258 218 225 261 244 259 267 281 276 255 235 202 235 224 201 209 212 195 190 190 191 192 191 189 189 188 186 186 187 188 188 188 190 188
269 254 250 247 249 246 248 247 250 243 241 248 222 264 271 268 267 271 271 260 230 234 240 250 225 241 210 195 194 192 194 194 192 191 191 192 191 189 190 190 191 192 193 196
270 256 257 257 251 245 244 247 244 243 239 236 260 260 261 259 265 269 270 263 235 221 247 251 233 219 214 198 198 196 196 199 194 195 193 195 194 194 195 198 199 201 202 208
267 259 263 258 252 245 245 245 248 253 248 253 262 267 270 261 259 260 263 272 245 247 254 243 263 199 215 201 201 197 195 199 199 197 199 198 202 202 198 201 207 213 216 223
258 260 263 255 249 244 246 236 242 251 253 255 255 262 264 264 266 254 259 266 254 246 260 257 270 223 206 201 200 201 206 217 206 207 209 209 208 211 208 209 213 221 224 237
250 258 259 256 252 238 245 247 242 246 254 258 267 262 254 258 263 258 259 265 265 256 247 265 253 226 222 228 226 215 220 225 226 224 218 217 214 215 216 218 215 225 233 235
242 250 251 249 250 247 247 248 240 241 251 255 260 269 270 256 260 265 259 256 259 253 250 264 251 235 228 240 246 239 231 228 223 221 219 219 217 219 221 223 221 224 231 238
237 240 242 248 247 242 244 248 236 251 254 259 256 258 267 272 252 260 263 258 250 254 255 260 252 249 247 242 237 230 232 228 231 230 221 220 223 226 224 224 224 228 227 234
231 233 234 244 245 248 257 253 261 240 253 261 260 259 257 264 264 249 260 262 258 253 255 260 259 255 246 231 233 239 241 235 233 235 234 235 232 230 233 236 240 236 236 241
232 229 227 236 244 239 286 263 244 251 249 258 260 259 251 248 248 251 256 268 272 266 261 261 259 258 258 252 241 241 246 244 246 251 247 240 240 238 238 234 239 239 242 247
233 231 225 230 242 277 284 268 270 255 241 253 255 257 257 251 238 243 248 268 279 283 276 277 270 266 263 257 254 252 250 250 250 249 248 248 248 244 242 232 235 241 245 246
242 231 226 233 249 276 279 279 278 263 247 260 256 257 260 244 248 256 266 277 282 287 288 286 279 277 274 270 264 260 260 256 250 247 247 247 246 248 247 240 234 240 244 245
239 234 223 229 248 275 266 283 269 263 263 273 274 262 259 260 272 270 274 286 291 292 296 290 284 280 280 280 274 269 263 255 252 251 251 247 244 245 249 250 244 239 251 253
234 233 224 220 240 258 254 271 281 265 284 286 287 283 279 275 273 279 289 294 294 297 297 296 295 293 292 288 281 275 267 254 248 244 238 237 242 250 252 256 256 268 248 235